This is the latest recevied weather packets stored in our database for station/object LX1CU-13. If no packets are shown the sender has not sent any weather packets the latest 10 day(s).
| Time | Temp. | Humidity | Pressure | Rain* | Wind** | Luminosity | Snow |
|---|---|---|---|---|---|---|---|
| 1777879416 | 13.89° C | 80% | 1009.8 hPa | 0 mm | - | - | - |
| 1777879116 | 13.89° C | 81% | 1009.9 hPa | 0 mm | - | - | - |
| 1777878816 | 13.89° C | 82% | 1010.1 hPa | 0 mm | - | - | - |
| 1777878553 | 13.33° C | 85% | 1010.1 hPa | 0 mm | - | - | - |
| 1777878216 | 13.33° C | 85% | 1010 hPa | 0 mm | - | - | - |
| 1777877916 | 13.33° C | 85% | 1010 hPa | 0 mm | - | - | - |
| 1777877616 | 12.78° C | 87% | 1009.9 hPa | 0 mm | - | - | - |
| 1777877316 | 12.78° C | 88% | 1009.8 hPa | 0 mm | - | - | - |
| 1777877016 | 12.22° C | 89% | 1009.7 hPa | 0 mm | - | - | - |
| 1777876716 | 11.11° C | 89% | 1009.8 hPa | 0 mm | - | - | - |
| 1777876416 | 10.56° C | 89% | 1009.7 hPa | 0 mm | - | - | - |
| 1777876116 | 10.56° C | 89% | 1009.6 hPa | 0 mm | - | - | - |
| 1777875816 | 10° C | 89% | 1009.7 hPa | 0 mm | - | - | - |
| 1777875516 | 10° C | 90% | 1009.7 hPa | 0 mm | - | - | - |
| 1777875216 | 9.44° C | 90% | 1009.6 hPa | 0 mm | - | - | - |
| 1777874916 | 9.44° C | 90% | 1009.7 hPa | 0 mm | - | - | - |
| 1777874616 | 8.89° C | 90% | 1009.9 hPa | 0 mm | - | - | - |
| 1777874316 | 8.89° C | 89% | 1009.8 hPa | 0 mm | - | - | - |
| 1777874016 | 8.89° C | 90% | 1009.8 hPa | 0 mm | - | - | - |
| 1777873716 | 8.89° C | 90% | 1009.8 hPa | 0 mm | - | - | - |
| 1777873416 | 8.33° C | 90% | 1009.8 hPa | 0 mm | - | - | - |
| 1777873116 | 7.78° C | 90% | 1009.9 hPa | 0 mm | - | - | - |
| 1777872816 | 7.78° C | 90% | 1009.8 hPa | 0 mm | - | - | - |
| 1777872516 | 7.22° C | 90% | 1009.8 hPa | 0 mm | - | - | - |
| 1777872216 | 7.22° C | 90% | 1009.7 hPa | 0 mm | - | - | - |
* Rain latest hour (hover to see other rain measurements)
** Current wind speed in m/s (hover to see current wind gust speed)